Location: Moscow
(44.4414°N, 72.7154°W)
Time: 09:12:19
(UTC+00:00)

deb Explorer IX - All Passes

Search period start: 07 November 2024 00:00
Search period end: 17 November 2024 00:00
Orbit: 494 x 787 km, 38.7° (Epoch: 06 November)

Date Brightness Start Highest point End Pass type
(mag) Time Alt. Az. Time Alt. Az. Time Alt. Az.
07 Nov - 00:23:55 10° S 00:26:21 13° SE 00:28:48 10° ESE visible
07 Nov - 02:03:31 10° SW 02:08:24 33° SSE 02:13:18 10° E night (unlit)
07 Nov - 03:45:37 10° WSW 03:50:55 47° S 03:56:08 10° ESE night (unlit)
07 Nov - 05:28:27 10° W 05:33:28 36° SSW 05:38:17 10° SE night (unlit)
07 Nov - 07:12:27 10° WSW 07:15:33 16° SSW 07:18:34 10° S night (unlit)
08 Nov - 00:45:01 10° SSW 00:49:03 22° SSE 00:53:12 10° ESE visible
08 Nov - 02:26:11 10° WSW 02:31:20 42° S 02:36:32 10° E night (unlit)
08 Nov - 04:08:39 10° WSW 04:13:56 45° S 04:19:05 10° ESE night (unlit)
08 Nov - 05:51:47 10° W 05:56:18 26° SSW 06:00:40 10° SSE night (unlit)
08 Nov - 23:27:51 10° SSE 23:29:41 12° SE 23:31:33 10° ESE visible
09 Nov - 01:06:54 10° SW 01:11:38 31° SSE 01:16:28 10° E visible
09 Nov - 02:48:49 10° WSW 02:54:04 47° S 02:59:22 10° ESE night (unlit)
09 Nov - 04:31:31 10° W 04:36:37 38° SSW 04:41:35 10° SE night (unlit)
09 Nov - 06:15:16 10° WSW 06:18:44 17° SSW 06:22:07 10° S night (unlit)
09 Nov - 23:48:04 10° SSW 23:51:50 20° SSE 23:55:43 10° ESE visible
10 Nov - 01:28:59 10° SW 01:34:00 40° SSE 01:39:10 10° E visible
10 Nov - 03:11:18 10° WSW 03:16:33 46° S 03:21:47 10° ESE night (unlit)
10 Nov - 04:54:16 10° W 04:58:56 28° SSW 05:03:29 10° SE night (unlit)
10 Nov - 22:31:37 10° SSE 22:32:01 10° SE 22:32:24 10° SE visible
11 Nov - 00:09:19 10° SW 00:13:49 29° SSE 00:18:30 10° E visible
11 Nov - 01:51:02 10° WSW 01:56:11 46° S 02:01:28 10° ESE visible
11 Nov - 03:33:36 10° W 03:38:42 39° SSW 03:43:46 10° SE night (unlit)
11 Nov - 05:17:06 10° WSW 05:20:51 19° SSW 05:24:31 10° SSE night (unlit)
11 Nov - 22:50:12 10° SSW 22:53:34 18° SSE 22:57:05 10° ESE visible
12 Nov - 00:30:48 10° SW 00:35:38 39° SSE 00:40:42 10° E visible
12 Nov - 02:12:57 10° WSW 02:18:07 46° S 02:23:22 10° ESE night (unlit)
12 Nov - 03:55:47 10° W 04:00:30 30° SSW 04:05:11 10° SE night (unlit)
12 Nov - 05:41:10 10° SW 05:42:21 11° SW 05:43:33 10° SSW night (unlit)
12 Nov - 23:10:47 10° SSW 23:15:00 27° SSE 23:19:26 10° E visible
13 Nov - 00:52:17 10° WSW 00:57:16 45° S 01:02:28 10° ESE visible
13 Nov - 02:34:42 10° W 02:39:44 40° SSW 02:44:51 10° SE night (unlit)
13 Nov - 04:17:58 10° WSW 04:21:55 20° SSW 04:25:49 10° SSE night (unlit)
13 Nov - 21:51:28 10° S 21:54:19 16° SSE 21:57:19 10° ESE visible
13 Nov - 23:31:40 10° SW 23:36:15 36° SSE 23:41:08 10° E visible
14 Nov - 01:13:39 10° WSW 01:18:39 46° S 01:23:51 10° ESE visible
14 Nov - 02:56:18 10° W 03:01:00 31° SSW 03:05:47 10° SE night (unlit)
14 Nov - 04:40:54 10° WSW 04:42:55 12° SW 04:44:56 10° SSW night (unlit)
14 Nov - 22:11:19 10° SSW 22:15:10 24° SSE 22:19:17 10° ESE visible
14 Nov - 23:52:34 10° WSW 23:57:19 43° S 00:02:23 10° ESE visible
15 Nov - 01:34:49 10° W 01:39:44 41° S 01:44:49 10° ESE visible
15 Nov - 03:17:52 10° WSW 03:21:54 22° SSW 03:26:00 10° SSE night (unlit)
15 Nov - 20:51:55 10° S 20:54:05 13° SSE 20:56:19 10° ESE daylight
15 Nov - 22:31:34 10° SW 22:35:52 33° SSE 22:40:30 10° E visible
16 Nov - 00:13:21 10° WSW 00:18:09 45° S 00:23:15 10° ESE visible
16 Nov - 01:55:50 10° W 02:00:29 32° SSW 02:05:17 10° SE visible
16 Nov - 03:39:55 10° WSW 03:42:25 13° SSW 03:44:57 10° S night (unlit)
16 Nov - 21:10:54 10° SSW 21:14:22 21° SSE 21:18:03 10° ESE daylight
16 Nov - 22:51:52 10° WSW 22:56:23 41° S 23:01:14 10° ESE visible
